User: anonymous
Location: Albany
(35.0000°S, 118.0000°E)
Time: 14:14:55
(UTC-04:00)
Language:

Radarsat Rocket - Orbit

View from above orbital plane
View from above orbital plane
View from above satellite
View from above satellite

Ground track
Ground track

The orbit data is extracted from the following two-line orbital elements,

1 23711U 95059B   14241.42695403 -.00000016  00000-0  51008-4 0  7340
2 23711 100.4558 225.5668 0368714 114.9440 001.2507 13.12647650901601
Epoch (UTC): 29 August 2014 10:14:48
Eccentricity: 0.0368714
inclination: 100.4558°
perigee height: 933 km
apogee height: 1493 km
right ascension of ascending node: 225.5668°
argument of perigee: 114.9440°
revolutions per day: 13.12647650
mean anomaly at epoch: 1.2507°
orbit number at epoch: 90160

The dashed part of the orbit path shows where the satellite is in the earth's shadow,  

DLR